Latest Weather Observations for Sydney Harbour

IDN60801

Issued at 6:03 am EST Friday 29 July 2016 (issued every 30 minutes, with the page automatically refreshed every 10 minutes)

About weather observations | Map of weather stations | Latest weather observations for NSW | Other Formats
Station Details ID: 066196 Name: WEDDING CAKE WEST Lat: -33.84 Lon: 151.26 Height: 6.0 m
Data from the previous 72 hours. | See also: Recent months at Sydney Harbour
Date/Time
EST
Temp
°C
App
Temp
°C
Dew
Point
°C
Rel
Hum
%
Delta-T
°C
Wind Press
QNH
hPa
Press
MSL
hPa
Rain since
9am
mm
Dir  Spd
km/h
Gust
km/h
Spd
kts
Gust
kts
29/06:00am 9.0 - - - - W 17 24 9 13 - - -
29/05:30am 9.5 - - - - WSW 15 22 8 12 - - -
29/05:00am 9.7 - - - - W 13 20 7 11 - - -
29/04:30am 9.6 - - - - W 19 24 10 13 - - -
29/04:00am 9.8 - - - - WSW 24 32 13 17 - - -
29/03:30am 9.9 - - - - W 26 35 14 19 - - -
29/03:00am 10.4 - - - - WSW 26 35 14 19 - - -
29/02:30am 10.8 - - - - WSW 32 41 17 22 - - -
29/02:00am 10.8 - - - - W 28 35 15 19 - - -
29/01:30am 10.8 - - - - W 22 30 12 16 - - -
29/01:00am 11.0 - - - - WSW 32 37 17 20 - - -
29/12:30am 11.2 - - - - WSW 30 37 16 20 - - -
29/12:00am 11.3 - - - - W 26 32 14 17 - - -
 
Date/Time
EST
Temp
°C
App
Temp
°C
Dew
Point
°C
Rel
Hum
%
Delta-T
°C
Wind Press
QNH
hPa
Press
MSL
hPa
Rain since
9am
mm
Dir  Spd
km/h
Gust
km/h
Spd
kts
Gust
kts
28/11:30pm 11.6 - - - - W 24 33 13 18 - - -
28/11:00pm 11.8 - - - - WSW 24 32 13 17 - - -
28/10:30pm 12.0 - - - - WSW 20 30 11 16 - - -
28/10:00pm 12.4 - - - - WSW 26 39 14 21 - - -
28/09:30pm 12.9 - - - - WSW 30 41 16 22 - - -
28/09:00pm 13.3 - - - - WSW 39 57 21 31 - - -
28/08:39pm 13.9 - - - - WSW 28 46 15 25 - - -
28/08:30pm 13.5 - - - - W 24 33 13 18 - - -
28/08:00pm 13.7 - - - - W 24 30 13 16 - - -
28/07:30pm 14.0 - - - - WSW 26 37 14 20 - - -
28/07:00pm 14.6 - - - - WSW 24 33 13 18 - - -
28/06:30pm 15.1 - - - - WSW 26 33 14 18 - - -
28/06:00pm 16.0 - - - - WSW 24 32 13 17 - - -
28/05:30pm 17.0 - - - - WSW 20 35 11 19 - - -
28/05:00pm 17.5 - - - - WNW 13 15 7 8 - - -
28/04:30pm 18.1 - - - - WNW 15 22 8 12 - - -
28/04:00pm 18.2 - - - - WNW 15 20 8 11 - - -
28/03:30pm 17.8 - - - - WSW 13 15 7 8 - - -
28/03:00pm 17.6 - - - - W 15 22 8 12 - - -
28/02:30pm 17.0 - - - - W 15 20 8 11 - - -
28/02:00pm 16.4 - - - - WNW 9 15 5 8 - - -
28/01:30pm 16.7 - - - - NW 13 20 7 11 - - -
28/01:00pm 16.1 - - - - WNW 11 17 6 9 - - -
28/12:30pm 15.0 - - - - SW 13 17 7 9 - - -
28/12:00pm 14.6 - - - - WSW 19 20 10 11 - - -
28/11:30am 14.4 - - - - W 17 20 9 11 - - -
28/11:00am 13.6 - - - - WSW 19 26 10 14 - - -
28/10:30am 13.0 - - - - W 24 28 13 15 - - -
28/10:00am 12.6 - - - - WSW 22 28 12 15 - - -
28/09:30am 12.2 - - - - WSW 22 28 12 15 - - -
28/09:00am 11.3 - - - - WSW 24 32 13 17 - - -
28/08:30am 10.9 - - - - WSW 24 33 13 18 - - -
28/08:00am 10.6 - - - - W 24 32 13 17 - - -
28/07:30am 10.7 - - - - WSW 22 28 12 15 - - -
28/07:00am 11.7 - - - - WSW 17 20 9 11 - - -
28/06:30am 12.1 - - - - WSW 19 24 10 13 - - -
28/06:00am 12.3 - - - - W 19 28 10 15 - - -
28/05:30am 11.7 - - - - W 19 24 10 13 - - -
28/05:00am 12.3 - - - - W 20 26 11 14 - - -
28/04:30am 12.6 - - - - W 22 30 12 16 - - -
28/04:00am 12.6 - - - - W 26 32 14 17 - - -
28/03:30am 12.6 - - - - W 24 32 13 17 - - -
28/03:00am 12.5 - - - - W 22 30 12 16 - - -
28/02:30am 12.5 - - - - W 22 28 12 15 - - -
28/02:00am 12.9 - - - - W 28 37 15 20 - - -
28/01:30am 12.9 - - - - W 30 39 16 21 - - -
28/01:00am 13.0 - - - - WSW 28 41 15 22 - - -
28/12:30am 13.0 - - - - WSW 28 35 15 19 - - -
28/12:00am 13.0 - - - - WSW 30 39 16 21 - - -
 
Date/Time
EST
Temp
°C
App
Temp
°C
Dew
Point
°C
Rel
Hum
%
Delta-T
°C
Wind Press
QNH
hPa
Press
MSL
hPa
Rain since
9am
mm
Dir  Spd
km/h
Gust
km/h
Spd
kts
Gust
kts
27/11:30pm 13.2 - - - - W 28 39 15 21 - - -
27/11:00pm 13.4 - - - - W 32 44 17 24 - - -
27/10:30pm 13.3 - - - - W 24 33 13 18 - - -
27/10:00pm 13.6 - - - - WSW 17 26 9 14 - - -
27/09:30pm 13.6 - - - - W 19 26 10 14 - - -
27/09:00pm 14.0 - - - - W 20 28 11 15 - - -
27/08:30pm 14.3 - - - - W 22 28 12 15 - - -
27/08:00pm 14.6 - - - - W 26 35 14 19 - - -
27/07:30pm 15.1 - - - - W 24 33 13 18 - - -
27/07:00pm 15.3 - - - - W 24 32 13 17 - - -
27/06:30pm 15.6 - - - - WSW 28 43 15 23 - - -
27/06:00pm 16.0 - - - - WSW 24 35 13 19 - - -
27/05:30pm 16.4 - - - - WSW 30 44 16 24 - - -
27/05:00pm 16.8 - - - - W 32 50 17 27 - - -
27/04:52pm 16.9 - - - - WSW 28 50 15 27 - - -
27/04:30pm 17.0 - - - - WSW 32 41 17 22 - - -
27/04:00pm 17.2 - - - - WSW 30 44 16 24 - - -
27/03:32pm 17.3 - - - - WSW 30 48 16 26 - - -
27/03:30pm 17.2 - - - - WSW 28 37 15 20 - - -
27/03:12pm 17.4 - - - - W 28 46 15 25 - - -
27/03:00pm 17.3 - - - - WSW 28 41 15 22 - - -
27/02:30pm 17.2 - - - - W 37 50 20 27 - - -
27/02:21pm 17.2 - - - - W 33 46 18 25 - - -
27/02:00pm 17.2 - - - - WSW 37 56 20 30 - - -
27/01:30pm 17.0 - - - - W 41 56 22 30 - - -
27/01:02pm 17.1 - - - - W 35 54 19 29 - - -
27/01:00pm 17.0 - - - - W 39 54 21 29 - - -
27/12:31pm 17.0 - - - - W 33 56 18 30 - - -
27/12:30pm 17.1 - - - - W 33 50 18 27 - - -
27/12:00pm 17.0 - - - - WNW 39 59 21 32 - - -
27/11:30am 16.8 - - - - W 35 56 19 30 - - -
27/11:00am 16.6 - - - - WNW 44 65 24 35 - - -
27/10:40am 16.5 - - - - WNW 32 56 17 30 - - -
27/10:30am 16.2 - - - - WNW 24 41 13 22 - - -
27/10:00am 15.8 - - - - WNW 19 32 10 17 - - -
27/09:30am 15.3 - - - - WNW 24 41 13 22 - - -
27/09:00am 14.9 - - - - WNW 22 33 12 18 - - -
27/08:30am 14.3 - - - - NW 19 28 10 15 - - -
27/08:00am 13.6 - - - - NNW 15 26 8 14 - - -
27/07:30am 13.3 - - - - NNW 15 26 8 14 - - -
27/07:00am 13.5 - - - - NW 17 26 9 14 - - -
27/06:30am 13.3 - - - - WNW 19 32 10 17 - - -
27/06:00am 13.2 - - - - NNW 13 20 7 11 - - -
27/05:30am 13.5 - - - - NW 20 32 11 17 - - -
27/05:00am 12.8 - - - - NW 15 28 8 15 - - -
27/04:30am 12.2 - - - - NNW 17 26 9 14 - - -
27/04:00am 12.3 - - - - NNW 17 22 9 12 - - -
27/03:30am 12.3 - - - - NNW 19 24 10 13 - - -
27/03:00am 12.1 - - - - NNW 17 20 9 11 - - -
27/02:30am 13.1 - - - - NW 13 19 7 10 - - -
27/02:00am 12.8 - - - - NNW 15 20 8 11 - - -
27/01:30am 12.4 - - - - NNW 13 17 7 9 - - -
27/01:00am 12.8 - - - - NNW 9 13 5 7 - - -
27/12:30am 13.5 - - - - NNW 15 17 8 9 - - -
27/12:00am 13.6 - - - - NNW 13 20 7 11 - - -
 
Date/Time
EST
Temp
°C
App
Temp
°C
Dew
Point
°C
Rel
Hum
%
Delta-T
°C
Wind Press
QNH
hPa
Press
MSL
hPa
Rain since
9am
mm
Dir  Spd
km/h
Gust
km/h
Spd
kts
Gust
kts
26/11:30pm 13.5 - - - - NNW 13 17 7 9 - - -
26/11:00pm 13.6 - - - - NNW 11 17 6 9 - - -
26/10:30pm 13.8 - - - - NNW 15 19 8 10 - - -
26/10:00pm 13.7 - - - - NNW 13 19 7 10 - - -
26/09:30pm 14.0 - - - - N 13 15 7 8 - - -
26/09:00pm 14.6 - - - - WNW 15 20 8 11 - - -
26/08:30pm 14.9 - - - - WNW 22 32 12 17 - - -
26/08:00pm 15.4 - - - - W 24 35 13 19 - - -
26/07:30pm 15.3 - - - - W 24 30 13 16 - - -
26/07:00pm 15.7 - - - - W 28 32 15 17 - - -
26/06:30pm 15.9 - - - - W 15 22 8 12 - - -
26/06:00pm 16.3 - - - - W 19 30 10 16 - - -
26/05:30pm 16.8 - - - - W 24 37 13 20 - - -
26/05:00pm 17.2 - - - - WNW 24 33 13 18 - - -
26/04:30pm 17.8 - - - - W 28 41 15 22 - - -
26/04:00pm 18.2 - - - - WNW 20 35 11 19 - - -
26/03:30pm 17.7 - - - - SE 6 13 3 7 - - -
26/03:00pm 17.0 - - - - ESE 20 28 11 15 - - -
26/02:30pm 16.1 - - - - E 26 32 14 17 - - -
26/02:00pm 16.3 - - - - E 22 26 12 14 - - -
26/01:30pm 16.2 - - - - E 17 24 9 13 - - -
26/01:00pm 15.8 - - - - ENE 17 20 9 11 - - -
26/12:30pm 15.7 - - - - E 9 17 5 9 - - -
26/12:00pm 16.5 - - - - ENE 13 19 7 10 - - -
26/11:30am 16.1 - - - - S 11 13 6 7 - - -
26/11:00am 15.3 - - - - WSW 13 17 7 9 - - -
26/10:30am 15.1 - - - - N 15 19 8 10 - - -
26/10:00am 14.6 - - - - N 11 15 6 8 - - -
26/09:30am 13.9 - - - - N 13 17 7 9 - - -
26/09:00am 13.2 - - - - N 13 17 7 9 - - -
26/08:30am 12.7 - - - - N 15 17 8 9 - - -
26/08:00am 12.4 - - - - NE 11 15 6 8 - - -
26/07:30am 12.2 - - - - N 13 15 7 8 - - -
26/07:00am 11.8 - - - - NNW 13 19 7 10 - - -
26/06:30am 12.0 - - - - N 19 22 10 12 - - -

Other Formats:

Comma delimited format used in spreadsheet applications
http://www.bom.gov.au/fwo/IDN60801/IDN60801.95766.axf

JavaScript Object Notation format (JSON) in row-major order
http://www.bom.gov.au/fwo/IDN60801/IDN60801.95766.json